Wind_Speed
18 23 26 24 22 19 17 16 14 14 14 18 19 20 21 20 19 20 19 18 20 19 19 18 17 16 16 17 18 17 17 16 15 15 15 14 13 13 15 18 15 13 13
23 25 28 25 22 19 19 17 16 15 15 17 21 21 21 21 20 21 19 19 20 20 19 18 18 16 16 17 17 16 15 15 15 17 18 17 15 14 12 12 14 12 14
24 25 25 25 22 19 21 19 17 16 15 20 23 23 22 22 22 19 19 19 20 20 19 18 17 16 15 17 16 14 14 14 16 19 17 14 14 14 14 14 11 12 12
24 24 24 24 22 20 22 19 18 16 13 22 25 24 25 25 22 20 19 18 19 19 18 16 15 15 16 16 14 12 13 14 15 15 12 13 13 14 14 14 14 13 12
23 23 23 24 22 20 22 20 18 16 13 19 25 27 27 24 22 21 20 20 19 18 17 16 16 15 15 15 13 11 11 12 15 12 11 11 11 12 13 13 12 13 13
21 20 21 24 22 20 23 21 18 16 15 17 21 25 25 23 20 20 20 22 20 18 16 16 17 18 15 13 11 10 10 10 12 9 10 11 10 11 11 12 12 12 12
20 20 20 23 23 22 22 21 17 15 18 16 19 23 22 20 19 19 18 21 19 16 15 15 15 14 14 12 10 9 9 10 7 8 8 8 8 9 9 10 11 11 11
19 19 20 21 22 24 23 20 17 16 18 18 17 19 21 19 18 18 16 16 16 15 14 14 13 13 11 10 9 7 7 8 7 7 6 6 7 6 7 8 9 10 9
17 18 19 20 19 24 23 20 16 17 18 19 17 16 17 16 17 17 16 15 15 15 14 13 12 11 11 10 8 7 5 7 5 5 5 4 6 3 4 6 6 7 8
15 18 18 19 20 20 21 19 16 16 20 19 16 15 14 16 16 16 15 15 15 15 14 12 11 10 10 9 7 6 5 6 4 4 4 3 5 2 3 1 4 5 7
21 18 19 20 20 20 20 20 17 16 19 21 19 19 17 14 14 14 14 14 14 13 12 11 10 10 8 7 7 5 4 3 4 3 3 2 3 3 3 4 4 3 5
26 18 19 20 20 20 19 21 18 17 15 16 16 18 15 14 14 12 13 14 13 12 11 11 10 9 8 5 5 5 4 4 3 3 3 3 3 3 1 2 3 3 3
17 28 20 19 19 19 19 18 21 19 16 14 15 16 14 13 12 12 10 10 9 10 8 8 8 7 7 6 6 6 5 5 4 3 3 2 2 2 2 3 3 2 4
7 23 12 21 19 18 18 18 16 18 16 14 15 15 14 12 13 12 11 11 10 9 9 9 8 8 7 6 6 6 5 4 4 4 4 3 3 4 6 7 7 6 5
6 15 16 24 19 18 18 18 16 15 17 14 14 14 12 11 11 11 10 10 10 10 10 9 9 9 8 7 7 7 6 6 5 5 5 7 7 8 7 8 10 8 7
26 9 15 13 21 18 17 18 18 16 15 15 15 13 11 10 10 10 10 10 10 10 10 10 9 9 9 8 8 7 7 6 6 6 5 7 7 7 8 7 9 10 9
26 18 7 8 5 17 14 14 15 15 16 14 14 13 12 10 9 9 10 10 10 10 11 11 11 10 9 9 8 8 7 7 7 7 8 8 8 10 9 9 9 9 9
19 23 18 12 8 11 12 14 14 14 14 14 13 13 13 12 11 11 11 11 10 11 11 12 11 11 10 10 9 8 7 7 8 8 10 11 10 11 12 12 9 10 9
20 26 17 13 13 12 9 12 17 16 15 14 14 14 15 15 14 13 13 13 12 13 13 13 13 13 12 10 9 8 6 9 10 9 11 11 13 12 12 12 11 9 8
18 20 17 18 20 17 14 12 15 17 14 10 10 12 13 13 15 15 15 14 14 14 14 15 15 14 13 12 9 9 10 11 9 10 11 11 9 8 7 6 4 5 8
19 22 19 19 16 10 10 15 17 18 15 13 11 9 11 12 13 15 17 16 16 17 18 17 17 16 14 12 8 10 11 10 10 6 5 5 5 4 3 3 5 6 7
19 24 24 23 22 15 16 12 13 12 13 10 6 10 15 14 16 17 17 23 26 20 19 19 19 17 16 15 9 3 6 5 4 3 3 4 2 2 2 3 5 6 5
16 18 27 25 32 30 26 20 13 8 8 4 10 11 13 16 17 19 19 24 26 29 23 22 24 22 16 13 15 6 4 4 3 5 4 4 4 4 4 4 5 5 5
20 25 30 28 27 32 34 24 20 15 13 15 20 23 24 13 14 12 14 20 25 29 33 23 21 20 15 13 9 10 9 7 4 4 5 5 5 5 5 5 6 6 8
6 9 12 17 26 29 30 31 28 24 25 19 14 20 25 18 15 12 15 20 20 22 22 26 14 10 7 8 6 3 3 4 9 8 6 6 5 8 8 8 7 8 11
9 9 6 8 5 6 15 21 26 21 21 27 29 26 20 19 18 14 20 22 18 16 18 16 13 9 6 6 6 10 11 6 9 8 6 10 9 9 9 9 10 10 11
Wind_Direction
173 170 175 167 163 160 157 155 155 153 154 158 159 155 152 148 148 139 135 132 126 124 120 118 117 116 113 110 104 101 94 93 94 96 100 97 86 75 86 87 76 73 71
167 170 174 171 164 161 156 159 160 152 156 157 158 155 150 147 145 140 135 131 130 127 124 122 120 119 117 116 109 101 93 91 94 94 79 77 79 73 78 89 84 68 61
166 167 170 171 168 166 160 163 159 158 155 158 160 158 154 149 145 140 137 135 134 131 129 126 121 122 120 116 112 99 93 91 94 93 89 85 79 75 73 70 71 63 64
165 167 169 171 170 170 163 164 163 160 148 163 161 160 155 148 144 139 137 136 136 134 134 130 129 128 124 121 116 105 98 98 100 86 91 86 79 74 71 69 67 66 61
167 166 168 172 173 170 163 167 166 160 148 155 160 158 150 142 143 139 139 141 140 138 136 132 128 124 129 125 121 111 100 102 97 95 96 91 82 74 73 72 67 63 65
169 169 173 173 174 171 163 169 165 161 156 149 153 152 147 146 139 140 144 149 150 143 135 132 132 130 126 124 126 118 107 104 93 100 93 87 88 83 73 70 67 67 64
176 173 174 176 174 169 169 171 166 159 161 150 154 149 149 145 141 143 146 154 150 142 137 134 133 131 133 132 132 124 115 107 103 101 99 96 92 84 77 70 67 64 62
182 178 175 178 173 167 172 172 168 162 164 160 148 146 142 148 148 145 148 148 146 145 142 140 139 136 132 132 131 130 120 112 102 110 110 107 106 95 82 66 63 64 64
192 187 177 174 170 170 171 169 166 162 160 169 158 153 159 157 151 148 148 150 150 150 151 149 147 143 138 137 133 132 124 126 118 116 114 110 117 101 67 55 59 58 56
207 197 181 173 168 171 167 166 161 159 159 161 167 157 163 156 152 151 149 152 156 158 160 158 157 158 155 150 146 138 131 132 141 130 126 128 111 101 44 342 46 50 46
339 206 185 175 175 175 172 167 158 156 160 163 166 173 164 157 156 158 162 163 162 163 165 165 167 169 168 168 166 157 141 169 165 154 139 140 109 101 51 54 47 43 34
328 210 193 180 174 176 177 168 162 157 157 159 163 167 167 165 165 166 169 168 169 171 174 176 180 180 167 181 187 176 167 160 173 169 163 160 141 129 88 35 22 7 2
282 293 191 186 177 175 176 170 170 163 163 165 165 166 168 167 170 163 172 172 177 179 181 183 191 189 195 193 201 203 196 185 183 182 184 162 175 193 231 269 287 291 277
266 286 213 188 180 176 176 180 173 170 166 166 170 171 168 170 172 176 179 182 183 190 191 194 200 204 203 204 208 205 212 210 205 209 226 237 244 252 258 258 268 278 266
224 249 313 187 181 177 174 181 182 177 173 175 172 175 176 181 182 182 186 190 194 198 201 203 204 205 206 210 210 218 226 235 232 235 252 272 270 266 275 273 263 266 262
234 226 300 202 178 179 176 177 180 182 185 182 181 185 185 184 186 188 194 199 206 207 206 208 211 210 215 217 222 224 232 239 243 254 266 279 286 285 292 287 288 267 253
184 195 229 282 193 189 177 177 176 177 182 190 187 193 196 196 197 202 206 209 214 213 211 211 209 210 218 220 228 227 234 240 253 263 272 277 279 289 280 291 287 272 254
190 181 159 191 184 193 199 188 184 184 185 187 189 199 205 207 217 223 224 220 218 211 209 209 208 212 217 218 223 226 227 246 267 272 278 281 279 281 285 284 272 271 251
180 182 170 164 227 214 194 196 199 192 193 188 194 201 207 213 219 227 231 224 215 216 217 213 211 214 214 211 216 227 245 266 271 277 280 286 286 284 280 281 272 257 222
166 179 177 200 207 218 215 211 208 196 197 192 206 215 210 216 223 226 233 232 216 217 219 217 217 215 213 211 215 232 261 265 271 275 281 287 281 279 274 261 241 191 197
189 178 184 203 219 233 209 205 197 209 217 205 206 227 233 224 230 228 240 245 227 220 218 215 214 212 209 217 220 239 248 259 272 260 277 285 290 291 277 228 186 177 184
209 208 213 215 215 220 224 218 214 219 220 218 235 255 252 247 249 243 255 255 243 229 219 213 213 208 218 211 211 222 267 233 242 202 274 268 263 260 239 203 187 181 182
181 224 236 231 222 211 216 230 226 230 251 283 285 270 264 266 263 260 273 276 268 242 229 216 212 214 212 204 202 214 242 239 252 230 237 232 230 216 204 202 192 194 195
188 206 222 220 220 225 219 229 230 252 269 260 267 298 290 269 273 275 297 283 250 248 241 238 231 220 215 204 211 220 245 272 272 284 211 231 224 217 216 218 206 213 222
136 176 208 205 228 233 234 238 226 223 228 234 253 258 262 274 269 282 292 277 258 239 241 236 230 189 183 168 176 184 269 272 249 247 273 231 248 243 227 219 224 224 232
55 87 131 156 156 209 218 231 236 234 226 208 225 235 239 249 245 245 244 243 242 236 211 196 192 192 228 237 234 235 208 181 236 237 248 272 270 260 238 227 224 228 239
Height
782 786 791 794 796 798 801 803 804 805 806 807 809 811 814 816 818 820 821 822 824 825 826 827 828 829 829 829 830 829 829 829 828 828 829 829 829 829 828 828 829 828 827
781 786 790 794 796 799 801 803 805 806 807 808 809 812 814 817 819 821 823 824 825 826 828 829 830 830 831 831 832 832 831 831 831 831 832 831 831 831 830 830 829 829 829
782 786 791 794 796 799 801 803 805 807 807 809 810 812 815 817 820 822 824 826 827 828 829 829 831 832 832 833 834 834 834 834 834 834 834 835 834 833 832 832 831 830 830
782 786 791 794 797 798 802 803 805 807 808 809 811 813 815 817 820 823 825 828 829 830 830 831 831 832 833 834 835 835 835 835 835 835 837 837 836 835 835 834 833 832 831
784 787 790 795 797 799 801 804 806 808 809 810 812 813 815 818 821 823 826 828 830 831 832 832 832 834 834 835 836 836 837 837 836 838 838 838 838 837 836 836 835 833 832
786 789 791 794 798 800 802 804 806 808 810 812 814 815 817 819 822 825 827 829 830 832 833 834 834 835 836 837 837 837 838 838 838 840 840 840 840 839 838 836 836 834 834
787 789 792 794 798 800 802 804 806 809 811 812 814 816 818 821 823 826 827 829 831 833 834 835 836 837 837 838 838 839 838 839 841 841 841 841 841 841 840 839 837 836 836
789 790 792 796 798 800 802 804 806 809 811 814 816 818 819 821 824 826 829 831 832 834 835 836 837 838 838 840 840 840 840 840 841 842 842 842 841 841 840 840 839 838 837
791 792 792 796 799 801 802 804 806 808 811 815 818 819 821 823 825 827 830 832 833 835 835 837 838 839 838 839 840 841 841 841 843 843 843 843 841 842 841 841 840 839 838
795 794 794 796 799 802 803 805 807 809 811 815 818 821 823 825 827 828 830 832 833 835 836 837 838 839 839 839 840 841 841 842 843 843 843 843 842 843 842 841 840 840 839
795 796 794 795 798 801 802 805 807 810 813 816 818 822 824 826 828 829 831 832 834 835 837 838 839 839 840 840 841 841 842 843 843 843 843 842 842 842 842 841 840 839 839
793 795 795 794 796 800 802 804 808 810 815 817 819 822 825 827 829 831 832 832 834 836 837 838 839 839 840 842 842 841 842 842 843 843 843 842 841 842 842 841 841 840 839
795 793 790 792 796 798 800 803 805 809 813 816 819 821 824 826 828 830 833 834 836 836 839 839 840 841 841 841 842 842 842 841 842 842 841 841 841 841 840 840 839 839 838
789 784 783 790 793 796 799 802 804 806 811 814 817 820 822 825 827 829 831 833 834 836 837 838 839 840 840 840 841 841 842 842 841 841 841 840 839 839 839 838 837 837 837
780 792 781 786 791 794 796 800 803 805 808 813 816 819 822 824 825 828 830 832 833 834 835 836 837 838 839 840 840 841 841 841 840 840 839 839 838 837 837 837 835 835 835
776 780 778 778 787 791 794 797 800 803 807 811 815 817 820 823 824 826 828 830 831 832 833 835 836 837 838 838 838 838 839 839 839 839 838 838 837 836 835 835 834 834 835
771 779 777 783 785 790 793 796 798 801 805 809 812 815 818 821 824 826 827 828 829 830 832 832 833 834 836 836 837 837 837 837 837 837 837 837 835 835 834 833 832 832 833
764 772 777 782 785 790 792 792 795 799 803 807 809 812 815 819 822 824 825 825 827 828 829 829 830 832 833 834 834 834 835 835 836 835 835 835 834 833 832 831 829 829 829
768 777 776 777 786 788 789 791 794 797 802 803 806 809 811 814 817 821 823 822 824 826 826 827 827 829 829 830 832 832 833 833 833 832 832 832 832 831 830 829 827 827 827
769 771 772 780 786 786 790 790 792 795 799 801 804 807 809 811 813 816 819 820 820 822 823 824 825 826 826 827 829 830 831 830 830 829 828 827 828 827 827 826 825 825 825
769 771 772 776 777 782 785 789 791 793 797 798 799 806 809 808 811 812 814 818 818 817 819 818 821 822 823 826 825 827 827 827 827 827 826 825 826 825 826 827 826 827 825
768 770 775 776 781 785 787 788 791 792 797 796 798 802 806 807 807 808 809 811 814 815 813 813 817 818 819 820 821 824 824 823 824 825 825 824 823 824 825 827 827 826 827
763 767 772 775 779 782 781 785 785 787 790 784 794 801 803 803 803 804 804 809 809 812 810 809 811 812 814 816 818 820 821 819 822 821 823 822 821 822 823 824 825 825 825
767 767 772 774 775 777 778 779 781 784 787 790 795 792 798 800 799 799 799 802 798 801 804 805 807 808 810 812 815 818 819 821 821 820 820 820 821 820 821 823 822 824 824
764 765 768 766 769 770 770 778 779 781 785 787 790 796 796 791 793 791 793 799 801 797 800 802 800 804 806 810 811 814 817 818 821 822 817 814 819 818 817 818 820 821 820
759 762 766 766 767 766 770 772 771 775 778 780 786 789 788 788 787 789 795 798 798 797 796 796 800 800 804 807 809 813 813 814 818 817 816 814 815 815 816 814 815 817 818